Location: Unspecified
(48.8656°N, 0.0000°E)
Time: 02:16:56
(UTC+00:00)

Vanguard 3 - Pass Details

Date: 19 June 2019
Orbit: 507 x 3264 km, 33.4° (Epoch: 15 July)

Event Time Altitude Azimuth Distance (km) Brightness Sun altitude
Rises 15:49:52 0° 251° (WSW) 3,865 11.5 38.8°
Reaches altitude 10° 15:54:58 10° 220° (SW) 2,347 10.3 38.0°
Maximum altitude 15:56:38 11° 202° (SSW) 2,088 9.7 37.7°
Drops below altitude 10° 15:58:08 10° 182° (S) 2,053 9.4 37.5°
Sets 16:01:42 0° 146° (SE) 2,707 9.6 36.9°
